Location: Praha
(50.0830°N, 14.4670°E)
Time: 05:32:10
(UTC+02:00)

ISS - Pass Details

Date: 09 July 2024
Orbit: 409 x 423 km, 51.6° (Epoch: 24 July)

Event Time Altitude Azimuth Distance (km) Brightness Sun altitude
Rises 23:48:24 0° 251° (WSW) 2,332 0.0 -15.6°
Reaches altitude 10° 23:50:29 10° 251° (WSW) 1,473 -1.0 -15.7°
Maximum altitude 23:53:47 85° 163° (SSE) 417 -3.9 -15.9°
Drops below altitude 10° 23:57:07 10° 75° (ENE) 1,482 -1.0 -16.0°
Sets 23:59:13 0° 74° (ENE) 2,348 0.0 -16.1°
